パンスターズ彗星

C/2023 R1 ( PanSTARRS )

English version
Home page
Updated on September 4, 2024

---------------------------------------------------------------------

・ プロフィール

発見日 2023年9月7日
発見光度 20.1等
発見者 Pan-STARRS 2 telescope (Haleakala)

・ 写真集

・ 軌道要素

Epoch 2024 Oct. 17.0 TT = JDT 2460600.5
T 2026 Apr. 13.62590 TT                                 Rudenko
q   3.5692887            (2000.0)            P               Q
z  -0.0004933      Peri.  144.28864     +0.07124724     -0.88872768
 +/-0.0000012      Node    62.55468     -0.99187656     -0.01515951
e   1.0017608      Incl.  149.31626     -0.10537895     -0.45818479
>From 558 observations 2023 July 29-2024 Sept. 1, mean residual 0".4.

・ 星図

・ 光度変化

        m1 = 5.5 + 5 logΔ + 10.0 log r

---------------------------------------------------------------------

軌道要素はM.P.E.C. 2024-R10に掲載されたものです。
星図はステラナビゲータ Ver.11 (アストロアーツ) で作成したものです。
光度グラフはComet for Windowsで作成したものです。

---------------------------------------------------------------------

Copyright(C) Seiichi Yoshida (comet@aerith.net). All rights reserved.